This is the latest recevied weather packets stored in our database for station/object KE0LFX. If no packets are shown the sender has not sent any weather packets the latest 10 day(s).
| Time | Temp. | Humidity | Pressure | Rain* | Wind** | Luminosity | Snow |
|---|---|---|---|---|---|---|---|
| 1777680850 | 11.67° C | 52% | 1020.8 hPa | 0 mm | - | 24 W/m² | - |
| 1777680548 | 11.67° C | 52% | 1020.8 hPa | 0 mm | - | 29 W/m² | - |
| 1777680246 | 11.67° C | 50% | 1020.8 hPa | 0 mm | - | 37 W/m² | - |
| 1777679941 | 11.67° C | 50% | 1020.7 hPa | 0 mm | - | 43 W/m² | - |
| 1777679637 | 12.22° C | 50% | 1020.6 hPa | 0 mm | - | 50 W/m² | - |
| 1777679332 | 12.22° C | 51% | 1020.9 hPa | 0 mm | - | 65 W/m² | - |
| 1777679030 | 12.22° C | 50% | 1020.7 hPa | 0 mm | - | 79 W/m² | - |
| 1777678728 | 11.67° C | 50% | 1020.9 hPa | 0 mm | - | 90 W/m² | - |
| 1777678425 | 12.22° C | 49% | 1021 hPa | 0 mm | - | 69 W/m² | - |
| 1777678121 | 11.67° C | 50% | 1020.8 hPa | 0 mm | - | 82 W/m² | - |
| 1777677818 | 12.22° C | 50% | 1020.9 hPa | 0 mm | - | 72 W/m² | - |
| 1777677516 | 12.22° C | 50% | 1020.9 hPa | 0 mm | - | 123 W/m² | - |
| 1777677213 | 11.67° C | 50% | 1020.8 hPa | 0 mm | - | 88 W/m² | - |
| 1777676912 | 11.67° C | 50% | 1020.8 hPa | 0 mm | - | 199 W/m² | - |
| 1777676611 | 11.67° C | 50% | 1020.8 hPa | 0 mm | - | 114 W/m² | - |
| 1777676308 | 11.67° C | 53% | 1020.9 hPa | 0 mm | - | 122 W/m² | - |
| 1777676005 | 12.22° C | 51% | 1021 hPa | 0 mm | - | 124 W/m² | - |
| 1777675701 | 12.22° C | 51% | 1020.8 hPa | 0 mm | - | 162 W/m² | - |
| 1777675399 | 12.22° C | 51% | 1020.8 hPa | 0 mm | - | 141 W/m² | - |
| 1777675095 | 12.22° C | 51% | 1021.1 hPa | 0 mm | - | 176 W/m² | - |
| 1777674791 | 12.22° C | 51% | 1021.1 hPa | 0 mm | - | 339 W/m² | - |
| 1777674487 | 12.22° C | 53% | 1020.9 hPa | 0 mm | - | 253 W/m² | - |
| 1777674185 | 12.22° C | 54% | 1020.9 hPa | 0 mm | - | 296 W/m² | - |
| 1777673881 | 12.22° C | 54% | 1021.2 hPa | 0 mm | - | 262 W/m² | - |
| 1777673578 | 12.22° C | 54% | 1021.1 hPa | 0 mm | - | 246 W/m² | - |
* Rain latest hour (hover to see other rain measurements)
** Current wind speed in m/s (hover to see current wind gust speed)